Regional Weather Roundup
Issued by NWS

Home | Current Version | Previous Version | Graphics & Text | Print | Product List | Glossary On
Versions: 1 2 3 4 5 6 7 8 9 10 11 12 13 14 15 16 17 18 19 20 21 22 23 24 25 26 27 28 29 30 31 32 33 34 35 36 37 38 39 40 41 42 43 44 45 46 47 48 49 50
080
ASUS43 KOAX 221810
RWRNE

WEATHER ROUNDUP FOR NEBRASKA
NATIONAL WEATHER SERVICE OMAHA NE
1200 PM CST WED FEB 22 2017

NOTES: SATELLITE DATA IS BEING USED TO AUGMENT CLOUD COVER ABOVE
       12000 FEET.
       "FAIR" INDICATES FEW OR NO CLOUDS BELOW 12,000 FEET WITH NO
       SIGNIFICANT WEATHER AND/OR OBSTRUCTIONS TO VISIBILITY.

  * THESE STATIONS DO NOT REPORT WEATHER SUCH AS RAIN...SNOW OR FOG.

NEZ001>004-019>022-054>056-221900-
NEBRASKA PANHANDLE

CITY           SKY/WX    TMP DP  RH WIND       PRES   REMARKS
SCOTTSBLUFF    PTSUNNY   53  22  29 W17       29.83F
6HR MIN TEMP:  41; 6HR MAX TEMP:  54;

ALLIANCE       SUNNY     53  22  29 NW22G32   29.81F
6HR MIN TEMP:  34; 6HR MAX TEMP:  53;

CHADRON        SUNNY     55  20  25 W26G36    29.80F
6HR MIN TEMP:  41; 6HR MAX TEMP:  55;

KIMBALL        SUNNY     53  21  29 NW25G35   29.84F
SIDNEY         SUNNY     57  16  20 NW25G35   29.82F
6HR MIN TEMP:  37; 6HR MAX TEMP:  57;

$$

NEZ057>060-069>072-079>082-221900-
SOUTHWEST NEBRASKA

CITY           SKY/WX    TMP DP  RH WIND       PRES   REMARKS
NORTH PLATTE   SUNNY     62  26  25 NW15      29.80F
6HR MIN TEMP:  27; 6HR MAX TEMP:  62;

IMPERIAL       SUNNY     58  22  24 NW12      29.84S
6HR MIN TEMP:  34; 6HR MAX TEMP:  59;

LEXINGTON      SUNNY     64  28  25 NW16G22   29.78R
MCCOOK         SUNNY     64  28  25 NW16      29.80F
6HR MIN TEMP:  43; 6HR MAX TEMP:  64;

OGALLALA       SUNNY     61  23  23 NW16G26   29.82S
$$

NEZ005>010-023>029-035>040-094-221900-
NORTH CENTRAL NEBRASKA

CITY           SKY/WX    TMP DP  RH WIND       PRES   REMARKS
VALENTINE      SUNNY     56  31  38 N20G29    29.75R
6HR MIN TEMP:  35; 6HR MAX TEMP:  58;

AINSWORTH      SUNNY     58  33  39 NW17G26   29.75S
BROKEN BOW     SUNNY     64  26  23 NW28G35   29.75S
6HR MIN TEMP:  47; 6HR MAX TEMP:  64;

O`NEILL        SUNNY     62  35  37 NW21G28   29.71S
ORD            SUNNY     65  22  19 NW23G35   29.72F
6HR MIN TEMP:  32; 6HR MAX TEMP:  66;

THEDFORD       SUNNY     60  24  25 NW28G36   29.78S
$$

NEZ041-046>049-061>064-073>077-083>087-221900-
SOUTH CENTRAL NEBRASKA

CITY           SKY/WX    TMP DP  RH WIND       PRES   REMARKS
GRAND ISLAND   SUNNY     68  37  32 NW16G23   29.73F
6HR MIN TEMP:  34; 6HR MAX TEMP:  68;

AURORA         SUNNY     68  36  30 NW21      29.72R
HASTINGS       SUNNY     68  33  27 NW18      29.73F
6HR MIN TEMP:  37; 6HR MAX TEMP:  68;

HEBRON         SUNNY     71  33  24 NW12      29.70F
HOLDREGE       SUNNY     64  29  26 NW14G20   29.76S
KEARNEY *      SUNNY     66  30  26 NW16G23   29.75F
YORK           SUNNY     68  37  32 NW22G28   29.70R
$$

NEZ011>018-030>034-042>045-221900-
NORTHEAST NEBRASKA

CITY           SKY/WX    TMP DP  RH WIND       PRES   REMARKS
NORFOLK        SUNNY     66  36  32 NW18      29.67S
6HR MIN TEMP:  33; 6HR MAX TEMP:  67;

ALBION         SUNNY     67  27  21 NW20G25   29.70S
BLAIR          SUNNY     66  39  36 NW15      29.65S
FREMONT        SUNNY     69  39  33 NW17      29.67R
TEKAMAH        SUNNY     68  40  35 N10       29.63F
6HR MIN TEMP:  36; 6HR MAX TEMP:  68;

WAYNE          SUNNY     65  38  36 NW21      29.66S
$$

NEZ050>053-065>068-078-088>093-221900-
SOUTHEAST NEBRASKA

CITY           SKY/WX    TMP DP  RH WIND       PRES   REMARKS
LINCOLN        SUNNY     72  36  26 NW18      29.68S
6HR MIN TEMP:  36; 6HR MAX TEMP:  72;

OMAHA EPPLEY   SUNNY     67  36  31 NW8       29.65S
6HR MIN TEMP:  41; 6HR MAX TEMP:  67;

BEATRICE       SUNNY     71  34  25 NW6G16    29.68S
FALLS CITY     SUNNY     70  34  26 SW10      29.67F
6HR MIN TEMP:  46; 6HR MAX TEMP:  70;

NEBRASKA CITY  SUNNY     65  26  23 W7G16     29.67S
PLATTSMOUTH    SUNNY     65  28  25 NW9       29.66R
$$

NEZ044-045-051>053-067-221900-
OMAHA AREA

CITY           SKY/WX    TMP DP  RH WIND       PRES   REMARKS
OMAHA EPPLEY   SUNNY     67  36  31 NW8       29.65S
6HR MIN TEMP:  41; 6HR MAX TEMP:  67;

BLAIR          SUNNY     66  39  36 NW15      29.65S
FREMONT        SUNNY     69  39  33 NW17      29.67R
MILLARD        SUNNY     67  38  35 NW10      29.66R
PLATTSMOUTH    SUNNY     65  28  25 NW9       29.66R
WAHOO          FAIR      69  37  30 N15       29.65F
$$




USA.gov is the U.S. government's official web portal to all federal, state and local government web resources and services.